COSMOS 1375 DEB, 17108

Orbit data source: Space-Track

COSMOS 1375 DEB, 17108 is space debris in LEO originally from a launch on Sun, 06 Jun 1982 UTC launched from the Plesetsk Missile And Space Complex (PKMTR). Debris objects in space refer to the collection of defunct objects orbiting the Earth. Examples of debris include non-operational satellites, rocket bodies, and fragments generated from explosions, collisions, or faulty payload assembly.

Loading next visibility...
Identifier
17108, 1982-055AK
Orbit
LEO
Country
Flag of CISCIS
Related business
Manufacturer
Unknown
Mission
Spacecraft
Bus & Motor
Unknown
Mass
Unknown
Launch date (UTC)
1982-06-06 (44 years ago)
Launch vehicle
Unknown
Launch site
Plesetsk Missile And Space Complex (PKMTR)
Object type
Payload
Rocket body
Debris
Shape & HBR
Unknown shape, 0.1 m
Radar Cross Section
Medium (>0.1 m² and <1 m²)

Expand to show TLE details & history
Last TLE update: 3 days ago

TLE from 3 days ago
0 COSMOS 1375 DEB
1 17108U 82055AK  26171.35803742  .00000380  00000-0  42844-3 0  9992
2 17108  65.8316 291.3901 0025878 294.3496  98.0808 13.82051957 43247
Epoch: 2026-06-20T08:35Z
TLE epoch observation values (Epoch: 2026-06-20T08:35:34.433Z)
Latitude
29.61632°
Longitude
-91.37652°
Altitude
962.114 km
Speed
7.372 km/s
True Right ascension
20h 24m 21s
True Declination
29° 28' 22"
Sunlit
Object was in daylight at epoch
Visualization orbit readout
Latitude
Unknown
Longitude
Unknown
Altitude
Unknown
Speed
Unknown
Apparent Right ascension
Unknown
Apparent Declination
Unknown
Sunlit
N/A
Visualization observer readout
Local Sidereal Time
08:25:06
Azimuth
Unknown
Elevation
Unknown
Doppler factor
Unknown
Orbital elements
Apogee altitude
974.107 km
Perigee altitude
936.153 km
Semi-major axis
7,333.267 km
Eccentricity
0.00259
Inclination
65.8316°
RAAN
291.3901°
Arg. of periapsis
294.3496°
True anomaly
98.37426°
Mean anomaly
98.0808°
Eccentric anomaly
98.22754°
Mean motion
3.45618 °/min
Orbital period
104.16 mins
BSTAR
0.00042844
Loading maneuver chart data...
Computing Atmospheric mass density...
Loading historical data...
Loading historical data...
Loading historical data...
Loading historical data...
Loading historical data...
Loading historical data...
Loading historical data...

Documentation

Showing up to 5 results
|